www.pogodaiklimat.ru

Погода и климат >> Архив погоды >> Ирак >> Кербела


ПОГОДА в Кербеле

  • Прогноз погоды в Кербеле
  • Монитор погоды в Кербеле

АРХИВ ПОГОДЫ в Кербеле

Время (UTC), дата Ветер
(напр.,м/с)
 
Видим.   Явления Облачность Т
(С)
Тd
(С)
f
(%)
Тe
(С)
Тes
(С)
Комфортность P
(гПа)
Po
(гПа)
Тmin
(С)
Tmax
(С)
R
(мм)
R24
(мм)
S
(см)
09 12.02 СЗ 5 10 км ясно +14.3 +7.1 62 +13 +18 1021.9 1018.4
12 12.02 С 4 10 км 1/1 900 м
[Cu hum]
+18.5 +6.1 44 +19 +22 1020.5 1017.0
15 12.02 СЗ 3 10 км ясно +17.3 +4.6 43 +17 +17 1021.1 1017.6
21 12.02 штиль 0 10 км ясно +11.2 +6.5 73 +11 +11 1023.7 1020.1
03 13.02 штиль 0 10 км ясно +7.8 +4.3 79 +7 +7 1024.0 1020.4
06 13.02 С 2 10 км 3/0
[Ci fib]
+9.8 +5.4 74 +8 +13 1025.4 1021.8 +7.7
09 13.02 С 2 10 км 4/0
[Ci fib]
+17.2 +7.2 52 +18 +28 1024.7 1021.2
12 13.02 штиль 0 10 км 3/0
[Ac trans]
+19.6 +5.8 40 +20 +26 1022.5 1019.0
15 13.02 штиль 0 10 км 1/1 900 м
[Cu hum]
+17.3 +3.8 41 +17 +17 1021.7 1018.2
18 13.02 Ю 2 10 км ясно +13.4 +6.7 64 +13 +13 1022.3 1018.8 +20.2
21 13.02 Ю 1 10 км ясно +11.2 +6.0 70 +11 +11 1021.6 1018.0
03 14.02 Ю 2 10 км 4/4 900 м
[Cu hum]
+10.8 +5.5 70 +10 +10 1019.4 1015.8
06 14.02 Ю 6 10 км 5/5 840 м
[Sc]
+12.9 +5.3 60 +11 +12 1019.3 1015.8 +10.6
09 14.02 Ю 10 6000 м пыльный позёмок 8/8 840 м
[Sc]
+17.2 +5.1 45 +16 +16 1016.5 1013.0
12 14.02 Ю 9 5000 м пыльный позёмок 9/9 840 м
[Sc]
+18.3 +4.1 39 +17 +18 1013.0 1009.6
15 14.02 Ю 8 10 км 8/8 750 м
[Cb calv]
+17.7 +6.1 46 +17 +17 1012.5 1009.1
18 14.02 Ю 7 10 км 5/5 840 м
[Sc]
+15.3 +6.4 55 +14 +14 1013.7 1010.2 +18.8
21 14.02 Ю 4 10 км 4/4 900 м
[Sc]
+14.6 +7.7 63 +13 +13 1013.3 1009.8
03 15.02 ЮВ 4 8000 м в посл. час ливневой дождь {гроза} 9/9 840 м
[Cu Sc]
+13.1 +11.4 89 +11 +11 1012.4 1008.9
06 15.02 {гроза, ливн. осадки} н/о +9.0 1013.6 +12.8 0.9
09 15.02 ЮВ 3 8000 м слаб. ливневой дождь 9/9 840 м
[Cu Sc]
+17.0 +11.5 70 +17 +18 1011.6 1008.2
12 15.02 8000 м в посл. час ливневой дождь н/о +17.0 +10.4 65 +17 +17 1010.7 1007.3
15 15.02 СЗ 10 6000 м в посл. час ливневой дождь 5/5 840 м
[Sc]
+12.5 +6.1 65 +9 +9 1013.4 1009.9
18 15.02 З 2 10 км ясно +9.6 +4.9 72 +8 +8 1015.5 1011.9 +17.5
21 15.02 СЗ 2 10 км ясно +8.5 +4.6 76 +7 +7 1016.4 1012.8
06 16.02 штиль 0 10 км ясно +8.5 +3.8 72 +8 +14 1020.7 1017.1 +5.4
09 16.02 штиль 0 10 км ясно +14.0 +5.5 57 +14 +29 опасность
простуды
1021.3 1017.8
12 16.02 штиль 0 10 км ясно +17.8 +4.2 40 +18 +25 1019.7 1016.2
15 16.02 штиль 0 10 км 3/0
[Ci sp]
+15.8 +4.7 48 +16 +16 1019.9 1016.4
18 16.02 штиль 0 10 км ясно +12.5 +6.1 65 +12 +12 1020.7 1017.2 +17.8
21 16.02 штиль 0 10 км ясно +11.5 +4.9 64 +11 +11 1020.3 1016.8
00 17.02 штиль 0 10 км ясно +9.5 +5.0 73 +9 +9 1020.3 1016.7
03 17.02 штиль 0 10 км ясно +10.0 +6.8 80 +9 +9 1019.9 1016.3
06 17.02 СЗ 3 10 км 3/0
[Ci sp]
+12.5 +7.8 73 +11 +15 1020.9 1017.4 +9.7
09 17.02 СЗ 4 10 км ясно +16.5 +7.5 55 +16 +24 1021.4 1017.9
12 17.02 СЗ 3 10 км 3/0
[Ci sp]
+18.5 +6.4 45 +19 +23 1019.4 1015.9
15 17.02 С 2 10 км ясно +17.0 +6.4 50 +17 +17 1018.8 1015.3
18 17.02 штиль 0 10 км ясно +14.5 +6.1 57 +14 +14 1019.9 1016.4 +18.6
21 17.02 штиль 0 10 км ясно +12.0 +7.9 76 +12 +12 1020.3 1016.8
09 18.02 штиль 0 10 км ясно +16.0 +7.6 57 +16 +32 опасность
простуды
1018.7 1015.2
12 18.02 СЗ 4 10 км ясно +18.4 +4.9 41 +18 +22 1015.5 1012.1
15 18.02 СЗ 2 10 км 3/3 840 м
[Cu med, cong]
+16.8 +4.2 43 +17 +17 1014.4 1010.9
18 18.02 штиль 0 10 км ясно +12.9 +5.6 61 +13 +13 1015.8 1012.3 +19.4
03 19.02 штиль 0 10 км ясно +8.3 +4.9 79 +8 +8 1015.8 1012.2
06 19.02 С 2 10 км 3/0
[Ci sp]
+9.8 +5.4 74 +8 +13 1017.4 1013.8 +8.1

 

Местоположение метеостанции Кербела (Ирак): широта 32.62 долгота 44.02 высота над уровнем моря 29 м.

В архиве по умолчанию представлена погода в Кербеле за последнюю неделю. Архивные данные за месяц целиком и за предыдущие месяцы, начиная с января 2011 года, Вы можете получить, выбрав интересующий диапазон дат из раскрывающегося списка и нажав кнопку "Ввод!".


*Определитесь, кто Вы:
робот инопланетянин человек

Внимание! Время в таблицах - всемирное. Для получения местного времени необходимо прибавить поправку, которая равна 3 ч.

Смотрите также архив погоды в соседних городах и на ближайших метеорологических станциях:

Погода в Хелле (Ирак) (45 км)
Погода в Багдаде (Ирак) (71 км)
Погода в Наджафе (Ирак) (77 км)
Погода в Эль-Азизии (Ирак) (104 км)
Погода в Рамади (Ирак) (113 км)
Погода в Дивании (Ирак) (115 км)
Погода в Хите (Ирак) (115 км)
Погода в Айн Аль-Тамаре (Ирак) (122 км)
Погода в Эль-Халисе (Ирак) (143 км)
Погода в Убайда Бин Аль Джарра (Ирак) (163 км)

Пояснения к столбцам:

Ветер - указаны скорость ветра в м/с - средняя за 10 мин, порывы в срок и между сроками (в фигурных скобках) и направление, откуда дует ветер: С - северный, СВ - северо-восточный, В - восточный, ЮВ - юго-восточный, Ю - южный, ЮЗ - юго-западный, З - западный, СЗ - северо-западный.
Видимость - горизонтальная дальность видимости в метрах или километрах. При видимости от 1 до 10 км при отсутствии осадков обычно наблюдается дымка, при ухудшении видимости до 1 км и менее - туман. В сухую погоду видимость может ухудшаться дымом, пылью или мглою.
Явления - указаны атмосферные явления, наблюдавшиеся в срок или в последний час перед сроком; фигурными скобками обозначены явления, наблюдавшиеся между сроками (за 1-3 часа до срока); квадратными скобками обозначены град или гололедные отложения с указанием их диаметра в мм.
Облачность - указаны через наклонную черту общая и нижняя облачность в баллах и высота нижней границы облаков в метрах; квадратными скобками обозначены формы облаков: Ci - перистые, Cs - перисто-слоистые, Cc - перисто-кучевые, Ac - высококучевые, As - высокослоистые, Sc - слоисто-кучевые, Ns - слоисто-дождевые, Cu - кучевые, Cb - кучево-дождевые. Подробнее классификацию облаков см. в Атласе облаков (PDF).
T - Температура воздуха - температура, измеренная на высоте 2 м над землей.
Td - Температура точки росы - температура, при понижении до которой содержащийся в воздухе водяной пар достигнет насыщения.
f - Относительная влажность воздуха - влажноcть воздуха, измеренная на высоте 2 м над землей.
Te - Эффективная температура - температура, которую ощущает одетый по сезону человек в тени. Характеристика душности погоды. При расчете учитывается влияние влажности воздуха и скорости ветра на теплоощущения человека.
Tes - Эффективная температура на солнце - температура, которую ощущает человек, с поправкой на солнечный нагрев. Характеристика знойности погоды. Зависит от высоты солнца над горизонтом, облачности и скорости ветра. Ночью, в пасмурную погоду, а также при ветре 12 м/с и более поправка равна нулю.
P - Атмосферное давление - приведенное к уровню моря атмосферное давление.
Po - Атмосферное давление - измеренное на уровне метеостанции атмосферное давление.
Tmin - Минимальная температура - минимум температуры воздуха на высоте 2 м над землей.
Tmax - Максимальная температура - максимум температуры воздуха на высоте 2 м над землей.
R - Количество осадков - Количество выпавших осадков за период времени, мм. При наведении курсора мыши на число - период времени, за который выпало указанное количество осадков.
R24 - Количество осадков - Количество выпавших осадков за 24 часа, мм.
S - Снежный покров - Высота снежного покрова, см. При наведении курсора мыши на число - состояние снежного покрова и степень покрытия местности в баллах.